Change the Weather History Date:

Wednesday, May 29, 2013

  Actual Average Record
Temperature  
Mean Temperature 72 °F -  
Max Temperature 82 °F 77 °F 91 °F (2006)
Min Temperature 62 °F 57 °F 42 °F (1984)
Cooling Degree Days 7    
Growing Degree Days 22 (Base 50)    
Moisture  
Dew Point 65 °F    
Average Humidity 77    
Maximum Humidity 94    
Minimum Humidity 61    
Precipitation  
Precipitation 0.25 in - - ()
Sea Level Pressure  
Sea Level Pressure 29.82 in    
Wind  
Wind Speed 15 mph (SSE)    
Max Wind Speed 23 mph    
Max Gust Speed 34 mph    
Visibility 10 miles    
Events Rain    
Averages and records for this station are not official NWS values.
T = Trace of Precipitation, MM = Missing Value Source: NWS Daily Summary

Daily Weather History Graph

Daily Weather History Graph

Search for Another Location

Airport or City:

Trip Planner

Search our weather history database for the weather conditions in past years. The results will help you decide how hot, cold, wet, or windy it might be!

Date:

Astronomy

May. 29, 2013 Rise Set
Actual Time 5:39 AM CDT 8:31 PM CDT
Civil Twilight 5:06 AM CDT 9:04 PM CDT
Nautical Twilight 4:25 AM CDT 9:46 PM CDT
Astronomical Twilight 3:37 AM CDT 10:33 PM CDT
Moon No Moon Rise 10:40 AM CDT
Length of Visible Light 15h 58m
Length of Day
14h 52m
Waning Gibbous, 73% of the Moon is Illuminated
May 29
Waning Gibbous
May 31
Last Quarter
Jun 8
New
Jun 16
First Quarter
Jun 23
Full

Hourly Weather History & Observations

Time (CDT) Temp. Heat Index Dew Point Humidity Pressure Visibility Wind Dir Wind Speed Gust Speed Precip Events Conditions
12:15 AM 64.4 °F - 59.0 °F 83% 29.82 in 10.0 mi SSE 15.0 mph - N/A   Mostly Cloudy
12:35 AM 62.6 °F - 59.0 °F 88% 29.85 in 8.0 mi South 13.8 mph 23.0 mph N/A Rain Light Rain
12:55 AM 62.6 °F - 59.0 °F 88% 29.83 in 9.0 mi South 9.2 mph 19.6 mph 0.05 in   Light Drizzle
1:15 AM 62.6 °F - 60.8 °F 94% 29.83 in 5.0 mi South 16.1 mph - N/A Rain Light Rain
1:35 AM 64.4 °F - 60.8 °F 88% 29.83 in 4.0 mi South 18.4 mph 34.5 mph N/A Rain Light Rain
1:55 AM 66.2 °F - 60.8 °F 83% 29.85 in 3.0 mi South 18.4 mph 26.5 mph 0.12 in Rain Heavy Rain
2:15 AM 64.4 °F - 60.8 °F 88% 29.84 in 6.0 mi SSE 15.0 mph - N/A Rain Light Rain
2:35 AM 62.6 °F - 60.8 °F 94% 29.87 in 8.0 mi South 16.1 mph - N/A   Light Drizzle
2:55 AM 64.4 °F - 60.8 °F 88% 29.83 in 9.0 mi SSE 17.3 mph - 0.07 in Rain Light Rain
3:15 AM 62.6 °F - 60.8 °F 94% 29.81 in 10.0 mi SSE 16.1 mph 23.0 mph N/A   Mostly Cloudy
3:35 AM 62.6 °F - 60.8 °F 94% 29.86 in 10.0 mi South 10.4 mph - N/A   Mostly Cloudy
3:55 AM 62.6 °F - 60.8 °F 94% 29.85 in 10.0 mi South 18.4 mph 24.2 mph 0.01 in   Overcast
4:15 AM 62.6 °F - 60.8 °F 94% 29.85 in 10.0 mi SSE 15.0 mph 20.7 mph N/A   Overcast
4:35 AM 62.6 °F - 60.8 °F 94% 29.85 in 10.0 mi South 18.4 mph - N/A   Overcast
4:55 AM 62.6 °F - 60.8 °F 94% 29.85 in 10.0 mi South 16.1 mph - N/A   Overcast
5:15 AM 62.6 °F - 60.8 °F 94% 29.87 in 10.0 mi South 15.0 mph 20.7 mph N/A   Overcast
5:35 AM 62.6 °F - 60.8 °F 94% 29.87 in 10.0 mi South 13.8 mph - N/A   Overcast
5:55 AM 62.6 °F - 60.8 °F 94% 29.87 in 10.0 mi South 10.4 mph - N/A   Mostly Cloudy
6:15 AM 62.6 °F - 60.8 °F 94% 29.87 in 9.0 mi South 9.2 mph - N/A   Mostly Cloudy
6:35 AM 62.6 °F - 60.8 °F 94% 29.87 in 10.0 mi South 9.2 mph - N/A   Mostly Cloudy
6:55 AM 62.6 °F - 60.8 °F 94% 29.88 in 10.0 mi SSE 8.1 mph - N/A   Partly Cloudy
7:15 AM 64.4 °F - 60.8 °F 88% 29.87 in 10.0 mi SSE 9.2 mph - N/A   Partly Cloudy
7:35 AM 64.4 °F - 60.8 °F 88% 29.87 in 10.0 mi SSE 9.2 mph - N/A   Clear
7:55 AM 66.2 °F - 62.6 °F 88% 29.87 in 10.0 mi SSE 11.5 mph - N/A   Clear
8:15 AM 68.0 °F - 62.6 °F 83% 29.87 in 10.0 mi South 11.5 mph - N/A   Clear
8:35 AM 69.8 °F - 62.6 °F 78% 29.87 in 10.0 mi South 13.8 mph - N/A   Mostly Cloudy
8:55 AM 69.8 °F - 62.6 °F 78% 29.87 in 10.0 mi South 11.5 mph 19.6 mph N/A   Scattered Clouds
9:15 AM 71.6 °F - 64.4 °F 78% 29.86 in 10.0 mi South 12.7 mph - N/A   Clear
9:35 AM 71.6 °F - 64.4 °F 78% 29.85 in 10.0 mi South 13.8 mph - N/A   Clear
9:55 AM 73.4 °F - 66.2 °F 78% 29.84 in 10.0 mi South 15.0 mph - N/A   Clear
10:15 AM 73.4 °F - 66.2 °F 78% 29.84 in 10.0 mi South 15.0 mph - N/A   Clear
10:35 AM 75.2 °F - 66.2 °F 73% 29.84 in 10.0 mi South 12.7 mph 18.4 mph N/A   Clear
10:55 AM 75.2 °F - 68.0 °F 78% 29.84 in 10.0 mi South 15.0 mph 21.9 mph N/A   Clear
11:15 AM 77.0 °F - 68.0 °F 74% 29.84 in 10.0 mi South 16.1 mph - N/A   Clear
11:35 AM 77.0 °F - 68.0 °F 74% 29.84 in 10.0 mi South 17.3 mph - N/A   Partly Cloudy
11:55 AM 77.0 °F - 68.0 °F 74% 29.84 in 10.0 mi South 12.7 mph 23.0 mph N/A   Mostly Cloudy
12:15 PM 78.8 °F - 69.8 °F 74% 29.84 in 10.0 mi SSE 18.4 mph - N/A   Mostly Cloudy
12:35 PM 80.6 °F 83.9 °F 69.8 °F 70% 29.84 in 10.0 mi South 17.3 mph - N/A   Partly Cloudy
12:55 PM 80.6 °F 83.9 °F 69.8 °F 70% 29.83 in 10.0 mi South 15.0 mph 23.0 mph N/A   Scattered Clouds
1:15 PM 80.6 °F 83.9 °F 69.8 °F 70% 29.83 in 10.0 mi South 15.0 mph 21.9 mph N/A   Scattered Clouds
1:35 PM 80.6 °F 83.9 °F 69.8 °F 70% 29.83 in 10.0 mi South 16.1 mph 25.3 mph N/A   Partly Cloudy
1:55 PM 82.4 °F 86.3 °F 69.8 °F 66% 29.82 in 10.0 mi South 17.3 mph - N/A   Partly Cloudy
2:15 PM 82.4 °F 86.3 °F 69.8 °F 66% 29.81 in 10.0 mi SSE 17.3 mph 24.2 mph N/A   Scattered Clouds
2:35 PM 82.4 °F 86.3 °F 69.8 °F 66% 29.80 in 10.0 mi SSE 16.1 mph 27.6 mph N/A   Scattered Clouds
2:55 PM 82.4 °F 86.3 °F 69.8 °F 66% 29.79 in 10.0 mi SSE 21.9 mph - N/A   Scattered Clouds
3:15 PM 82.4 °F 86.3 °F 69.8 °F 66% 29.78 in 10.0 mi SSE 20.7 mph - N/A   Scattered Clouds
3:35 PM 82.4 °F 86.3 °F 69.8 °F 66% 29.77 in 10.0 mi South 23.0 mph 28.8 mph N/A   Mostly Cloudy
3:55 PM 82.4 °F 86.3 °F 69.8 °F 66% 29.77 in 10.0 mi SSE 21.9 mph 32.2 mph N/A   Mostly Cloudy
4:15 PM 82.4 °F 86.3 °F 69.8 °F 66% 29.76 in 10.0 mi SSE 20.7 mph 34.5 mph N/A   Mostly Cloudy
4:35 PM 80.6 °F 83.9 °F 69.8 °F 70% 29.76 in 10.0 mi SSE 19.6 mph 28.8 mph N/A   Scattered Clouds
4:55 PM 80.6 °F 83.2 °F 68.0 °F 65% 29.77 in 10.0 mi SSE 16.1 mph 26.5 mph N/A   Partly Cloudy
5:15 PM 80.6 °F 83.2 °F 68.0 °F 65% 29.77 in 10.0 mi SSE 17.3 mph 24.2 mph N/A   Partly Cloudy
5:35 PM 80.6 °F 83.2 °F 68.0 °F 65% 29.76 in 10.0 mi SSE 17.3 mph - N/A   Clear
5:55 PM 80.6 °F 83.2 °F 68.0 °F 65% 29.75 in 10.0 mi SSE 17.3 mph 25.3 mph N/A   Clear
6:15 PM 80.6 °F 82.7 °F 66.2 °F 61% 29.75 in 10.0 mi SSE 18.4 mph 25.3 mph N/A   Scattered Clouds
6:35 PM 80.6 °F 83.2 °F 68.0 °F 65% 29.75 in 10.0 mi SSE 18.4 mph 24.2 mph N/A   Mostly Cloudy
6:55 PM 80.6 °F 83.2 °F 68.0 °F 65% 29.73 in 10.0 mi SSE 16.1 mph 23.0 mph N/A   Clear
7:15 PM 80.6 °F 82.7 °F 66.2 °F 61% 29.74 in 10.0 mi SSE 19.6 mph - N/A   Clear
7:35 PM 80.6 °F 82.7 °F 66.2 °F 61% 29.74 in 10.0 mi SSE 15.0 mph 21.9 mph N/A   Clear
7:55 PM 78.8 °F - 66.2 °F 65% 29.74 in 10.0 mi SSE 12.7 mph - N/A   Clear
8:15 PM 78.8 °F - 66.2 °F 65% 29.75 in 10.0 mi South 13.8 mph - N/A   Clear
8:35 PM 77.0 °F - 66.2 °F 69% 29.77 in 10.0 mi South 10.4 mph 17.3 mph N/A   Clear
8:55 PM 75.2 °F - 66.2 °F 73% 29.77 in 10.0 mi SSE 10.4 mph - N/A   Clear
9:15 PM 75.2 °F - 66.2 °F 73% 29.77 in 10.0 mi South 11.5 mph - N/A   Clear
9:35 PM 75.2 °F - 64.4 °F 69% 29.79 in 10.0 mi South 11.5 mph - N/A   Partly Cloudy
9:55 PM 75.2 °F - 64.4 °F 69% 29.80 in 10.0 mi South 12.7 mph - N/A   Mostly Cloudy
10:15 PM 75.2 °F - 64.4 °F 69% 29.81 in 10.0 mi SSE 10.4 mph 17.3 mph N/A   Overcast
10:35 PM 75.2 °F - 64.4 °F 69% 29.81 in 10.0 mi SSE 11.5 mph - N/A   Overcast
10:55 PM 75.2 °F - 64.4 °F 69% 29.82 in 10.0 mi South 15.0 mph - N/A   Overcast
11:15 PM 75.2 °F - 64.4 °F 69% 29.81 in 10.0 mi SSE 16.1 mph - N/A   Mostly Cloudy
11:35 PM 75.2 °F - 64.4 °F 69% 29.81 in 10.0 mi SSE 16.1 mph - N/A   Mostly Cloudy
11:55 PM 75.2 °F - 64.4 °F 69% 29.79 in 10.0 mi SSE 15.0 mph 21.9 mph N/A   Mostly Cloudy